TJS-5

Last updated on Wed Sep 09 2026 00:03:02 GMT+0000 (Coordinated Universal Time)

1 44978U 20002A 26251.54350332 -.00000363 00000+0 00000+0 0 9998 2 44978 0.2029 83.1676 0007348 347.6050 220.0032 1.00270519 24544
UTC large
Height (km)
Speed (km/s)
/
Latitude / Longitude
Inclination (degrees)
Orbital Period (minutes)
Azimuth
Elevation
Range (km)
Doppler Factor

Next 0 passes for location: London (51.5072 / 0.1276)

No passes found over London.
TJS-5